Find Starlink 32782

NORAD ID: 62821 Int'l Des: 2025-018 Owner: SPXS Country: US Constellation: starlink operational
LEOCIRCULAR

当前视图

正在加载3D地球...

About Starlink 32782

Starlink 32782 (NORAD 62821) is a starlink constellation satellite (v2 mini) launched Jan 24, 2025 by SPXS of US. It operates in LEO, CIRCULAR orbit with a mass of 730.00 kg.

即将过境

Passes for default location (London). Set your location on the main map for personalized predictions.

高度历史

Loading altitude history...

两行轨道根数

1 62821U 25018R 26255.15124176 .00014545 00000-0 44071-3 0 9990
2 62821 53.1579 160.8623 0001015 118.4803 241.6302 15.34404025 91768
Epoch: Sep 12, 2026 • Age: 17 hours

当前状态

高度 480.0 km
远地点 / 近地点 N/A
速度 7.63 km/s
星下点 -49.14°S, 100°E
发射日期 Jan 24, 2025
运行时间 1.6 years
类型 internet

技术详情

分类 Payload
质量 730.00 kg
干质量 700.00 kg
总质量 730.00 kg
长度 0.30 m
直径 4.10 m
跨度 29.00 m
形状 Box + pan
制造商 SPXS
平台类型 Starlink V2M
阶段状态 In Orbit
所有者/国家 SPXS/US

Most Searched